Time,TemperatureF,DewpointF,PressureIn,WindDirection,WindDirectionDegrees,WindSpeedMPH,WindSpeedGustMPH,Humidity,HourlyPrecipIn,Conditions,Clouds,dailyrainin,SoftwareType,DateUTC
2013-06-06 00:03:00,61.0,53.0,30.19,ESE,123,0.0,-999.0,74,-99.99,,,-99.99,,2013-06-06 04:03:00,
2013-06-06 00:13:00,61.0,53.0,30.19,ESE,123,0.0,-999.0,74,-99.99,,,-99.99,,2013-06-06 04:13:00,
2013-06-06 00:23:00,62.0,54.0,30.19,ESE,123,0.0,-999.0,74,-99.99,,,-99.99,,2013-06-06 04:23:00,
2013-06-06 00:33:00,61.0,53.0,30.19,ESE,123,0.0,-999.0,75,-99.99,,,-99.99,,2013-06-06 04:33:00,
2013-06-06 00:42:00,61.0,54.0,30.18,ESE,123,2.0,-999.0,78,-99.99,,,-99.99,,2013-06-06 04:42:00,
2013-06-06 00:53:00,61.0,54.0,30.18,ESE,123,2.0,-999.0,78,-99.99,,,-99.99,,2013-06-06 04:53:00,
2013-06-06 01:02:00,60.0,54.0,30.18,ESE,122,0.0,-999.0,81,-99.99,,,-99.99,,2013-06-06 05:02:00,
2013-06-06 01:12:00,60.0,54.0,30.18,ESE,122,0.0,-999.0,81,-99.99,,,-99.99,,2013-06-06 05:12:00,
2013-06-06 01:23:00,59.0,54.0,30.18,ESE,122,2.0,-999.0,83,-99.99,,,-99.99,,2013-06-06 05:23:00,
2013-06-06 01:32:00,60.0,54.0,30.17,ESE,122,2.0,-999.0,82,-99.99,,,-99.99,,2013-06-06 05:32:00,
2013-06-06 01:42:00,60.0,54.0,30.17,ESE,122,2.0,-999.0,82,-99.99,,,-99.99,,2013-06-06 05:42:00,
2013-06-06 01:52:00,61.0,55.0,30.17,ESE,122,1.0,-999.0,82,-99.99,,,-99.99,,2013-06-06 05:52:00,
2013-06-06 02:02:00,60.0,54.0,30.16,ESE,122,0.0,-999.0,82,-99.99,,,-99.99,,2013-06-06 06:02:00,
2013-06-06 02:12:00,60.0,54.0,30.16,ESE,122,0.0,-999.0,82,-99.99,,,-99.99,,2013-06-06 06:12:00,
2013-06-06 02:22:00,60.0,54.0,30.17,ESE,122,0.0,-999.0,82,-99.99,,,-99.99,,2013-06-06 06:22:00,
2013-06-06 02:33:00,59.0,54.0,30.18,ESE,122,0.0,-999.0,83,-99.99,,,-99.99,,2013-06-06 06:33:00,
2013-06-06 02:42:00,59.0,54.0,30.18,ESE,122,0.0,-999.0,83,-99.99,,,-99.99,,2013-06-06 06:42:00,
2013-06-06 02:52:00,59.0,54.0,30.18,ESE,122,0.0,-999.0,84,-99.99,,,-99.99,,2013-06-06 06:52:00,
2013-06-06 03:02:00,60.0,55.0,30.19,ESE,122,1.0,-999.0,83,-99.99,,,-99.99,,2013-06-06 07:02:00,
2013-06-06 03:12:00,60.0,55.0,30.19,ESE,122,1.0,-999.0,83,-99.99,,,-99.99,,2013-06-06 07:12:00,
2013-06-06 03:22:00,60.0,54.0,30.18,ESE,122,0.0,-999.0,82,-99.99,,,-99.99,,2013-06-06 07:22:00,
2013-06-06 03:32:00,60.0,54.0,30.17,ESE,122,0.0,-999.0,82,-99.99,,,-99.99,,2013-06-06 07:32:00,
2013-06-06 03:42:00,60.0,54.0,30.17,ESE,122,0.0,-999.0,82,-99.99,,,-99.99,,2013-06-06 07:42:00,
2013-06-06 03:52:00,60.0,54.0,30.17,ESE,122,2.0,-999.0,81,-99.99,,,-99.99,,2013-06-06 07:52:00,
2013-06-06 04:02:00,61.0,55.0,30.17,ESE,122,2.0,-999.0,81,-99.99,,,-99.99,,2013-06-06 08:02:00,
2013-06-06 04:12:00,61.0,55.0,30.17,ESE,122,2.0,-999.0,81,-99.99,,,-99.99,,2013-06-06 08:12:00,
2013-06-06 04:22:00,60.0,54.0,30.18,ESE,122,0.0,-999.0,81,-99.99,,,-99.99,,2013-06-06 08:22:00,
2013-06-06 04:32:00,59.0,54.0,30.17,ESE,122,0.0,-999.0,84,-99.99,,,-99.99,,2013-06-06 08:32:00,
2013-06-06 04:42:00,59.0,54.0,30.17,ESE,122,0.0,-999.0,85,-99.99,,,-99.99,,2013-06-06 08:42:00,
2013-06-06 04:52:00,59.0,54.0,30.17,ESE,122,0.0,-999.0,85,-99.99,,,-99.99,,2013-06-06 08:52:00,
2013-06-06 05:02:00,59.0,54.0,30.17,ESE,122,0.0,-999.0,85,-99.99,,,-99.99,,2013-06-06 09:02:00,
2013-06-06 05:12:00,59.0,54.0,30.17,ESE,122,0.0,-999.0,85,-99.99,,,-99.99,,2013-06-06 09:12:00,
2013-06-06 05:22:00,59.0,54.0,30.17,ESE,122,2.0,-999.0,85,-99.99,,,-99.99,,2013-06-06 09:22:00,
2013-06-06 05:33:00,60.0,55.0,30.17,ESE,122,0.0,-999.0,83,-99.99,,,-99.99,,2013-06-06 09:33:00,
2013-06-06 05:43:00,60.0,55.0,30.17,ESE,122,0.0,-999.0,83,-99.99,,,-99.99,,2013-06-06 09:43:00,
2013-06-06 05:53:00,60.0,54.0,30.17,ESE,122,0.0,-999.0,82,-99.99,,,-99.99,,2013-06-06 09:53:00,
2013-06-06 06:03:00,60.0,54.0,30.16,ESE,122,1.0,-999.0,82,-99.99,,,-99.99,,2013-06-06 10:03:00,
2013-06-06 06:12:00,60.0,54.0,30.16,ESE,122,2.0,-999.0,81,-99.99,,,-99.99,,2013-06-06 10:12:00,
2013-06-06 06:23:00,60.0,54.0,30.16,ESE,122,2.0,-999.0,81,-99.99,,,-99.99,,2013-06-06 10:23:00,
2013-06-06 06:33:00,60.0,54.0,30.17,ESE,122,1.0,-999.0,80,-99.99,,,-99.99,,2013-06-06 10:33:00,
2013-06-06 06:42:00,60.0,54.0,30.17,ESE,122,1.0,-999.0,80,-99.99,,,-99.99,,2013-06-06 10:42:00,
2013-06-06 06:52:00,61.0,54.0,30.17,ESE,122,2.0,-999.0,79,-99.99,,,-99.99,,2013-06-06 10:52:00,
2013-06-06 07:02:00,61.0,54.0,30.16,ESE,122,3.0,-999.0,78,-99.99,,,-99.99,,2013-06-06 11:02:00,
2013-06-06 07:12:00,61.0,54.0,30.16,ESE,122,3.0,-999.0,78,-99.99,,,-99.99,,2013-06-06 11:12:00,
2013-06-06 07:22:00,61.0,54.0,30.17,ESE,109,0.0,-999.0,77,-99.99,,,-99.99,,2013-06-06 11:22:00,
2013-06-06 07:32:00,62.0,55.0,30.17,ESE,111,7.0,-999.0,77,-99.99,,,-99.99,,2013-06-06 11:32:00,
2013-06-06 07:42:00,62.0,55.0,30.17,ESE,111,7.0,-999.0,77,-99.99,,,-99.99,,2013-06-06 11:42:00,
2013-06-06 07:52:00,61.0,54.0,30.17,East,96,6.0,-999.0,77,-99.99,,,-99.99,,2013-06-06 11:52:00,
2013-06-06 08:03:00,62.0,55.0,30.17,East,98,4.0,-999.0,77,-99.99,,,-99.99,,2013-06-06 12:03:00,
2013-06-06 08:12:00,62.0,55.0,30.17,East,98,4.0,-999.0,77,-99.99,,,-99.99,,2013-06-06 12:12:00,
2013-06-06 08:23:00,63.0,55.0,30.17,ESE,115,5.0,-999.0,75,-99.99,,,-99.99,,2013-06-06 12:23:00,
2013-06-06 08:33:00,63.0,55.0,30.17,ESE,107,1.0,-999.0,74,-99.99,,,-99.99,,2013-06-06 12:33:00,
2013-06-06 08:43:00,63.0,55.0,30.17,ESE,107,3.0,-999.0,74,-99.99,,,-99.99,,2013-06-06 12:43:00,
2013-06-06 08:52:00,63.0,55.0,30.17,ESE,107,3.0,-999.0,74,-99.99,,,-99.99,,2013-06-06 12:52:00,
2013-06-06 09:03:00,63.0,54.0,30.17,ESE,112,4.0,-999.0,73,-99.99,,,-99.99,,2013-06-06 13:03:00,
2013-06-06 09:13:00,64.0,54.0,30.17,ESE,117,4.0,-999.0,71,-99.99,,,-99.99,,2013-06-06 13:13:00,
2013-06-06 09:23:00,64.0,54.0,30.17,ESE,117,4.0,-999.0,71,-99.99,,,-99.99,,2013-06-06 13:23:00,
2013-06-06 09:33:00,64.0,54.0,30.17,East,97,0.0,-999.0,69,-99.99,,,-99.99,,2013-06-06 13:33:00,
2013-06-06 09:43:00,64.0,54.0,30.17,East,97,0.0,-999.0,69,-99.99,,,-99.99,,2013-06-06 13:43:00,
2013-06-06 09:52:00,66.0,54.0,30.16,East,100,4.0,-999.0,65,-99.99,,,-99.99,,2013-06-06 13:52:00,
2013-06-06 10:03:00,66.0,52.0,30.16,ESE,117,4.0,-999.0,61,-99.99,,,-99.99,,2013-06-06 14:03:00,
2013-06-06 10:13:00,66.0,52.0,30.16,ESE,117,4.0,-999.0,61,-99.99,,,-99.99,,2013-06-06 14:13:00,
2013-06-06 10:23:00,67.0,53.0,30.16,ESE,105,3.0,-999.0,61,-99.99,,,-99.99,,2013-06-06 14:23:00,
2013-06-06 10:33:00,68.0,53.0,30.15,SE,128,1.0,-999.0,58,-99.99,,,-99.99,,2013-06-06 14:33:00,
2013-06-06 10:43:00,68.0,53.0,30.15,SE,128,1.0,-999.0,58,-99.99,,,-99.99,,2013-06-06 14:43:00,
2013-06-06 10:52:00,68.0,54.0,30.15,SSE,152,6.0,-999.0,61,-99.99,,,-99.99,,2013-06-06 14:52:00,
2013-06-06 11:03:00,68.0,54.0,30.15,SSE,159,5.0,-999.0,60,-99.99,,,-99.99,,2013-06-06 15:03:00,
2013-06-06 11:13:00,68.0,54.0,30.15,SSE,159,5.0,-999.0,60,-99.99,,,-99.99,,2013-06-06 15:13:00,
2013-06-06 11:23:00,68.0,52.0,30.15,ESE,111,7.0,-999.0,56,-99.99,,,-99.99,,2013-06-06 15:23:00,
2013-06-06 11:33:00,68.0,50.0,30.15,ESE,110,8.0,-999.0,52,-99.99,,,-99.99,,2013-06-06 15:33:00,
2013-06-06 11:43:00,68.0,50.0,30.15,ESE,110,8.0,-999.0,52,-99.99,,,-99.99,,2013-06-06 15:43:00,
2013-06-06 11:53:00,68.0,50.0,30.15,SSE,151,2.0,-999.0,52,-99.99,,,-99.99,,2013-06-06 15:53:00,
2013-06-06 12:03:00,68.0,47.0,30.15,SE,139,2.0,-999.0,47,-99.99,,,-99.99,,2013-06-06 16:03:00,
2013-06-06 12:13:00,68.0,47.0,30.15,SE,139,2.0,-999.0,47,-99.99,,,-99.99,,2013-06-06 16:13:00,
2013-06-06 12:23:00,69.0,45.0,30.15,SE,140,8.0,-999.0,42,-99.99,,,-99.99,,2013-06-06 16:23:00,
2013-06-06 12:33:00,68.0,46.0,30.14,SE,130,6.0,-999.0,45,-99.99,,,-99.99,,2013-06-06 16:33:00,
2013-06-06 12:44:00,68.0,46.0,30.14,SE,130,6.0,-999.0,45,-99.99,,,-99.99,,2013-06-06 16:44:00,
2013-06-06 12:52:00,68.0,48.0,30.14,ESE,111,7.0,-999.0,48,-99.99,,,-99.99,,2013-06-06 16:52:00,
2013-06-06 13:03:00,68.0,47.0,30.13,SE,145,1.0,-999.0,47,-99.99,,,-99.99,,2013-06-06 17:03:00,
2013-06-06 13:13:00,69.0,47.0,30.13,SE,124,5.0,-999.0,45,-99.99,,,-99.99,,2013-06-06 17:13:00,
2013-06-06 13:23:00,69.0,47.0,30.13,SE,124,5.0,-999.0,45,-99.99,,,-99.99,,2013-06-06 17:23:00,
2013-06-06 13:33:00,68.0,46.0,30.14,ESE,122,6.0,-999.0,46,-99.99,,,-99.99,,2013-06-06 17:33:00,
2013-06-06 13:43:00,68.0,46.0,30.14,ESE,122,6.0,-999.0,46,-99.99,,,-99.99,,2013-06-06 17:43:00,
2013-06-06 13:52:00,68.0,47.0,30.14,ESE,122,13.0,-999.0,47,-99.99,,,-99.99,,2013-06-06 17:52:00,
2013-06-06 14:03:00,69.0,51.0,30.13,ESE,121,8.0,-999.0,52,-99.99,,,-99.99,,2013-06-06 18:03:00,
2013-06-06 14:13:00,69.0,51.0,30.13,ESE,121,8.0,-999.0,52,-99.99,,,-99.99,,2013-06-06 18:13:00,
2013-06-06 14:23:00,69.0,51.0,30.13,SSE,155,8.0,-999.0,53,-99.99,,,-99.99,,2013-06-06 18:23:00,
2013-06-06 14:33:00,68.0,52.0,30.13,SE,134,5.0,-999.0,57,-99.99,,,-99.99,,2013-06-06 18:33:00,
2013-06-06 14:43:00,68.0,52.0,30.13,SE,134,5.0,-999.0,57,-99.99,,,-99.99,,2013-06-06 18:43:00,
2013-06-06 14:53:00,68.0,52.0,30.12,East,99,9.0,-999.0,57,-99.99,,,-99.99,,2013-06-06 18:53:00,
2013-06-06 15:03:00,67.0,53.0,30.12,SE,126,9.0,-999.0,60,-99.99,,,-99.99,,2013-06-06 19:03:00,
2013-06-06 15:13:00,67.0,53.0,30.12,SE,126,9.0,-999.0,60,-99.99,,,-99.99,,2013-06-06 19:13:00,
2013-06-06 15:23:00,67.0,53.0,30.11,ESE,106,7.0,-999.0,61,-99.99,,,-99.99,,2013-06-06 19:23:00,
2013-06-06 15:33:00,67.0,54.0,30.12,SE,135,5.0,-999.0,62,-99.99,,,-99.99,,2013-06-06 19:33:00,
2013-06-06 15:43:00,67.0,54.0,30.12,SE,135,5.0,-999.0,62,-99.99,,,-99.99,,2013-06-06 19:43:00,
2013-06-06 15:52:00,67.0,54.0,30.11,SSE,159,8.0,-999.0,63,-99.99,,,-99.99,,2013-06-06 19:52:00,
2013-06-06 16:03:00,66.0,55.0,30.11,ESE,115,10.0,-999.0,68,-99.99,,,-99.99,,2013-06-06 20:03:00,
2013-06-06 16:13:00,66.0,55.0,30.11,ESE,115,10.0,-999.0,68,-99.99,,,-99.99,,2013-06-06 20:13:00,
2013-06-06 16:23:00,66.0,56.0,30.11,SE,127,5.0,-999.0,69,-99.99,,,-99.99,,2013-06-06 20:23:00,
2013-06-06 16:33:00,66.0,56.0,30.11,SE,128,6.0,-999.0,70,-99.99,,,-99.99,,2013-06-06 20:33:00,
2013-06-06 16:42:00,66.0,56.0,30.11,SE,128,6.0,-999.0,70,-99.99,,,-99.99,,2013-06-06 20:42:00,
2013-06-06 16:53:00,65.0,55.0,30.10,SE,128,6.0,-999.0,70,-99.99,,,-99.99,,2013-06-06 20:53:00,
2013-06-06 17:03:00,66.0,56.0,30.10,SE,130,5.0,-999.0,69,-99.99,,,-99.99,,2013-06-06 21:03:00,
2013-06-06 17:13:00,66.0,56.0,30.10,SE,130,5.0,-999.0,69,-99.99,,,-99.99,,2013-06-06 21:13:00,
2013-06-06 17:23:00,65.0,56.0,30.10,ESE,121,6.0,-999.0,72,-99.99,,,-99.99,,2013-06-06 21:23:00,
2013-06-06 17:33:00,65.0,56.0,30.10,ESE,116,6.0,-999.0,74,-99.99,,,-99.99,,2013-06-06 21:33:00,
2013-06-06 17:43:00,65.0,56.0,30.10,ESE,116,6.0,-999.0,74,-99.99,,,-99.99,,2013-06-06 21:43:00,
2013-06-06 17:53:00,65.0,56.0,30.09,SE,127,7.0,-999.0,74,-99.99,,,-99.99,,2013-06-06 21:53:00,
2013-06-06 18:03:00,65.0,56.0,30.08,ESE,118,2.0,-999.0,74,-99.99,,,-99.99,,2013-06-06 22:03:00,
2013-06-06 18:13:00,65.0,56.0,30.08,ESE,118,2.0,-999.0,74,-99.99,,,-99.99,,2013-06-06 22:13:00,
2013-06-06 18:23:00,65.0,56.0,30.08,ESE,118,9.0,-999.0,74,-99.99,,,-99.99,,2013-06-06 22:23:00,
2013-06-06 18:33:00,65.0,58.0,30.08,SE,128,4.0,-999.0,77,-99.99,,,-99.99,,2013-06-06 22:33:00,
2013-06-06 18:43:00,65.0,58.0,30.08,SE,128,4.0,-999.0,77,-99.99,,,-99.99,,2013-06-06 22:43:00,
2013-06-06 18:53:00,64.0,56.0,30.08,SE,126,5.0,-999.0,76,-99.99,,,-99.99,,2013-06-06 22:53:00,
2013-06-06 19:03:00,65.0,58.0,30.08,SE,126,1.0,-999.0,77,-99.99,,,-99.99,,2013-06-06 23:03:00,
2013-06-06 19:13:00,65.0,58.0,30.08,SE,126,1.0,-999.0,77,-99.99,,,-99.99,,2013-06-06 23:13:00,
2013-06-06 19:22:00,64.0,57.0,30.08,ESE,115,8.0,-999.0,78,-99.99,,,-99.99,,2013-06-06 23:22:00,
2013-06-06 19:33:00,64.0,58.0,30.08,ESE,118,7.0,-999.0,80,-99.99,,,-99.99,,2013-06-06 23:33:00,
2013-06-06 19:43:00,64.0,58.0,30.08,ESE,118,7.0,-999.0,80,-99.99,,,-99.99,,2013-06-06 23:43:00,
2013-06-06 19:52:00,64.0,58.0,30.08,SE,128,4.0,-999.0,80,-99.99,,,-99.99,,2013-06-06 23:52:00,
2013-06-06 20:02:00,64.0,57.0,30.09,ESE,112,1.0,-999.0,79,-99.99,,,-99.99,,2013-06-07 00:02:00,
2013-06-06 20:12:00,64.0,57.0,30.09,ESE,112,1.0,-999.0,79,-99.99,,,-99.99,,2013-06-07 00:12:00,
2013-06-06 20:22:00,64.0,57.0,30.09,ESE,110,5.0,-999.0,79,-99.99,,,-99.99,,2013-06-07 00:22:00,
2013-06-06 20:32:00,64.0,58.0,30.08,ESE,116,5.0,-999.0,80,-99.99,,,-99.99,,2013-06-07 00:32:00,
2013-06-06 20:42:00,64.0,58.0,30.08,ESE,116,5.0,-999.0,80,-99.99,,,-99.99,,2013-06-07 00:42:00,
2013-06-06 20:52:00,63.0,57.0,30.08,ESE,119,6.0,-999.0,81,-99.99,,,-99.99,,2013-06-07 00:52:00,
2013-06-06 21:03:00,63.0,57.0,30.07,ESE,104,4.0,-999.0,81,-99.99,,,-99.99,,2013-06-07 01:03:00,
2013-06-06 21:12:00,63.0,57.0,30.07,ESE,104,4.0,-999.0,81,-99.99,,,-99.99,,2013-06-07 01:12:00,
2013-06-06 21:22:00,63.0,58.0,30.07,ESE,104,7.0,-999.0,83,-99.99,,,-99.99,,2013-06-07 01:22:00,
2013-06-06 21:32:00,63.0,58.0,30.07,ESE,111,7.0,-999.0,83,-99.99,,,-99.99,,2013-06-07 01:32:00,
2013-06-06 21:42:00,63.0,58.0,30.07,ESE,111,7.0,-999.0,83,-99.99,,,-99.99,,2013-06-07 01:42:00,
2013-06-06 21:52:00,63.0,58.0,30.07,ESE,117,6.0,-999.0,83,-99.99,,,-99.99,,2013-06-07 01:52:00,
2013-06-06 22:02:00,63.0,58.0,30.08,SE,131,4.0,-999.0,84,-99.99,,,-99.99,,2013-06-07 02:02:00,
2013-06-06 22:12:00,63.0,58.0,30.08,SE,131,4.0,-999.0,84,-99.99,,,-99.99,,2013-06-07 02:12:00,
2013-06-06 22:22:00,63.0,58.0,30.08,SE,140,7.0,-999.0,84,-99.99,,,-99.99,,2013-06-07 02:22:00,
2013-06-06 22:32:00,63.0,59.0,30.08,ESE,117,4.0,-999.0,86,-99.99,,,-99.99,,2013-06-07 02:32:00,
2013-06-06 22:42:00,63.0,59.0,30.08,ESE,117,4.0,-999.0,86,-99.99,,,-99.99,,2013-06-07 02:42:00,
2013-06-06 22:52:00,63.0,59.0,30.08,ESE,109,10.0,-999.0,86,-99.99,,,-99.99,,2013-06-07 02:52:00,
2013-06-06 23:02:00,62.0,58.0,30.07,ESE,121,6.0,-999.0,87,-99.99,,,-99.99,,2013-06-07 03:02:00,
2013-06-06 23:12:00,62.0,58.0,30.07,ESE,121,6.0,-999.0,87,-99.99,,,-99.99,,2013-06-07 03:12:00,
2013-06-06 23:22:00,62.0,59.0,30.06,SE,124,5.0,-999.0,89,-99.99,,,-99.99,,2013-06-07 03:22:00,
2013-06-06 23:33:00,62.0,59.0,30.05,ESE,111,4.0,-999.0,90,-99.99,,,-99.99,,2013-06-07 03:33:00,
2013-06-06 23:43:00,62.0,59.0,30.05,ESE,111,4.0,-999.0,90,-99.99,,,-99.99,,2013-06-07 03:43:00,
2013-06-06 23:53:00,62.0,59.0,30.05,East,101,3.0,-999.0,90,-99.99,,,-99.99,,2013-06-07 03:53:00,